Flag for Mauritania Weather past 2 weeks in Nouakchott, Mauritania

Now
63 °F

Clear.


Feels Like: 63 °F
Forecast: 58 / 81 °F
Wind: 7 mph from Northeast

Location: Nouakchott Airport

Current Time: Dec 21, 2014 at 9:27:32 AM

Latest Report: Dec 21, 2014 at 9:00 AM


Visibility: 4 mi

Pressure: 30.04 "Hg

Humidity: 25%

Dew point: 27 °F

Location of NouakchottLocation

Historic Weather in Nouakchott — Graph

°F

Nouakchott temperature yesterday

Maximum temperature yesterday: 82 °F (at 4:00 PM)
Minimum temperature yesterday: 55 °F (at 6:30 AM)
Average temperature yesterday: 68 °F

Past Weeks' High & Low Weather Summary

 TemperatureHumidityPressure
High102 °F (Dec 14, 2:30 PM)57% (Dec 6, 7:30 PM)32.96 "Hg (Dec 6, 7:30 PM)
Low54 °F (Dec 18, 6:00 AM)5% (Dec 14, 2:30 PM)29.83 "Hg (Dec 8, 3:30 PM)
Average73 °F20%30.00 "Hg
* Reported Dec 6 8:00 AM — Dec 21 8:30 AM, Nouakchott, Weather by CustomWeather, © 2014

Note: Actual official high and low records may vary slightly from our data, if they occured in-between our weather recording intervals... More about our weather records

Advertising

Nouakchott weather history for previous 24 hours

 ConditionsComfort  
Time TempWeatherWind HumidityBarometerVisibility
8:30 AM
Dec 21
59 °FClear.6 mph29%30.04 "Hg4 mi
8:00 AM59 °FClear.6 mph29%30.01 "Hg4 mi
7:30 AM59 °FClear.7 mph29%30.01 "Hg4 mi
7:00 AM57 °FClear.7 mph31%30.01 "Hg4 mi
6:30 AM57 °FClear.6 mph31%30.01 "Hg4 mi
6:00 AM57 °FClear.7 mph31%30.01 "Hg4 mi
5:30 AM57 °FClear.7 mph29%30.01 "Hg4 mi
5:00 AM57 °FClear.7 mph29%30.01 "Hg4 mi
4:30 AM61 °FClear.8 mph27%30.01 "Hg4 mi
4:00 AM61 °FClear.8 mph27%30.01 "Hg4 mi
3:30 AM61 °FClear.8 mph27%32.96 "Hg4 mi
3:00 AM59 °FClear.6 mph29%30.04 "Hg4 mi
2:30 AM59 °FClear.7 mph29%30.04 "Hg4 mi
2:00 AM61 °FClear.7 mph27%30.04 "Hg4 mi
1:30 AM63 °FClear.6 mph24%30.04 "Hg4 mi
1:00 AM63 °FClear.6 mph24%30.04 "Hg4 mi
12:30 AM64 °FClear.7 mph22%30.07 "Hg4 mi
12:00 AM66 °FClear.9 mph21%30.07 "Hg4 mi
11:30 PM
Dec 20
66 °FClear.9 mph21%30.07 "Hg4 mi
11:00 PM68 °FClear.7 mph21%30.07 "Hg4 mi
10:30 PM68 °FClear.8 mph21%30.07 "Hg4 mi
10:00 PM66 °FClear.7 mph24%30.07 "Hg4 mi
9:30 PM68 °FClear.6 mph21%30.04 "Hg4 mi
9:00 PM70 °FClear.6 mph21%30.04 "Hg4 mi
8:30 PM72 °FClear.6 mph19%30.04 "Hg4 mi
8:00 PM72 °FClear.7 mph20%30.01 "Hg4 mi
7:30 PM73 °FClear.8 mph19%30.01 "Hg4 mi
7:00 PM75 °FClear.7 mph18%30.01 "Hg4 mi
6:30 PM79 °FClear.8 mph13%30.01 "Hg4 mi
6:00 PM79 °FClear.9 mph13%29.98 "Hg4 mi
5:00 PM81 °FClear.12 mph14%29.98 "Hg4 mi
4:30 PM81 °FClear.9 mph13%29.98 "Hg4 mi
4:00 PM82 °FClear.9 mph13%29.98 "Hg4 mi
3:30 PM81 °FClear.9 mph15%29.98 "Hg4 mi
3:00 PM81 °FClear.10 mph14%29.98 "Hg4 mi
2:30 PM81 °FClear.10 mph15%30.01 "Hg4 mi
2:00 PM79 °FClear.10 mph16%30.01 "Hg4 mi
1:30 PM79 °FClear.13 mph16%30.04 "Hg4 mi
1:00 PM79 °FDuststorm.12 mph16%30.04 "Hg2 mi
12:30 PM77 °FDuststorm.14 mph17%30.07 "Hg2 mi
12:00 PM75 °FDuststorm.15 mph18%30.07 "Hg2 mi
11:30 AM75 °FDuststorm.15 mph18%30.07 "Hg2 mi
11:00 AM72 °FDuststorm.15 mph20%30.09 "Hg2 mi
10:30 AM68 °FDuststorm.9 mph23%30.09 "Hg2 mi
10:00 AM64 °FDuststorm.8 mph26%30.09 "Hg2 mi
9:30 AM63 °FDuststorm.9 mph27%30.09 "Hg2 mi
9:00 AM61 °FDuststorm.9 mph27%30.09 "Hg2 mi
Weather by CustomWeather, © 2014

See weather overviewHow to use our weather pages